Weather observations for the past three days for
Baton Rouge, Baton Rouge Metropolitan, Ryan Field
Imperial (Metric)
Date Time (cdt) Wind (mph) Vis. (mi.) Weather Sky Cond. Temperature (ºF) Relative Humidity Wind Chill (°F) Heat Index (°F) Pressure Precipitation (in)
Air Dwpt 6 hour altimeter (in) sea level (mb) 1 hr 3 hr 6 hr
Max. Min.
01 15:53 E 8 10.00 A Few Clouds FEW050 79 75 88% 83 30 1015.7
01 14:53 E 6 10.00 Light Rain FEW080 SCT110 79 75.9 90% 83 30.02 1016.5
01 13:53 E 9 10.00 A Few Clouds FEW110 79 75 88% 83 30.02 1016.6
01 12:53 E 13 G 21 7.00 Thunderstorm Rain FEW032 BKN070 OVC100 80.1 75.9 89.1 77 87% 85 30.05 1017.4
01 11:53 E 15 G 23 10.00 Light Rain BKN020 86 75.9 72% 96 30.03 1016.7
01 10:53 E 12 10.00 Mostly Cloudy BKN020 88 77 70% 100 30.04 1016.9
01 09:53 E 10 10.00 Mostly Cloudy BKN017 86 77 75% 97 30.03 1016.7
01 08:53 E 12 10.00 Fair CLR 84 78.1 82% 95 30.03 1016.8
01 07:53 E 7 10.00 Fair CLR 80.1 78.1 94% 86 30.03 1016.7
01 06:53 E 7 10.00 Fair CLR 77 75.9 77 75.9 96% 78 30.01 1016.0
01 05:53 NE 6 10.00 Fair CLR 77 75 94% 78 29.99 1015.5
01 04:53 E 6 10.00 Fair CLR 77 75 94% 78 29.99 1015.4
01 03:53 E 5 10.00 Fair CLR 77 75 94% 78 29.99 1015.6
01 02:53 NE 8 10.00 Fair CLR 75.9 75 97% 75 29.98 1015.2
01 01:53 E 3 10.00 Fair CLR 75.9 75 97% 75 30 1015.8
01 00:53 E 5 10.00 Fair CLR 75.9 75 82.9 75.9 97% 75 30.01 1015.9
31 23:53 E 3 10.00 Fair CLR 77 75 94% 78 30.01 1016.0
31 22:53 E 5 10.00 Fair CLR 77 75 94% 78 30.01 1016.1
31 21:53 E 6 10.00 Fair CLR 78.1 73.9 87% 81 30 1015.5
31 20:53 NE 6 10.00 Fair CLR 79 75 88% 83 29.99 1015.4
31 19:53 NE 5 10.00 Fair CLR 80.1 73.9 82% 85 29.98 1015.1
31 18:53 E 6 10.00 Partly Cloudy FEW080 SCT095 82.9 77 91.9 78.1 82% 92 29.98 1015.1 0.73
31 17:53 NE 5 10.00 Fair CLR 82 77 85% 90 29.99 1015.4 0.31
31 16:53 E 6 10.00 Fair CLR 82 75.9 82% 89 29.99 1015.5 0.15
31 15:53 Calm 10.00 Rain SCT050 82.9 75 77% 90 30 1015.7 0.09 0.27
31 14:53 SE 3 5.00 Light Rain BKN024 BKN090 81 75 82% 87 30.01 1016.2 0.12
31 13:53 E 8 10.00 Overcast BKN024 BKN043 OVC055 89.1 77 68% 102 30.01 1015.9 0.06
31 12:53 NE 12 10.00 Mostly Cloudy BKN024 BKN044 BKN050 91.9 73.9 91.9 75 56% 102 30.02 1016.4
31 11:53 E 16 G 23 10.00 Mostly Cloudy BKN024 90 73.9 59% 99 30.04 1017.1
31 10:53 NE 12 10.00 Mostly Cloudy BKN024 89.1 75.9 65% 100 30.05 1017.3
31 09:53 E 8 10.00 Mostly Cloudy BKN018 84.9 75.9 75% 94 30.05 1017.4
31 08:53 NE 9 10.00 Fair CLR 82 75.9 82% 89 30.04 1017.1
31 07:53 E 8 10.00 Fair CLR 78.1 75 90% 81 30.03 1016.7
31 06:53 NE 6 10.00 Fair CLR 75 73.9 77 75 96% 73 30.02 1016.3
31 05:53 NE 5 10.00 Fair CLR 75 73.9 96% 73 30 1015.8
31 04:53 NE 3 10.00 Fair CLR 75.9 73.9 94% 75 29.99 1015.5
31 03:53 N 5 10.00 Fair CLR 75.9 73.9 94% 75 29.99 1015.3
31 02:53 Calm 10.00 Fair CLR 75.9 73.9 94% 75 29.99 1015.3
31 01:53 NE 3 10.00 Fair CLR 77 73.9 90% 78 30 1015.6
31 00:53 NE 5 10.00 Fair CLR 77 73.9 84.9 77 90% 78 30.01 1015.9
30 23:53 NE 3 10.00 Fair CLR 78.1 75 90% 81 30.02 1016.2
30 22:53 E 3 10.00 A Few Clouds FEW110 79 75 88% 83 30.02 1016.4
30 21:53 SE 3 10.00 Fair CLR 80.1 75 85% 85 30.02 1016.3
30 20:53 E 3 10.00 Fair CLR 81 75 82% 87 30 1015.7
30 19:53 E 6 10.00 Fair CLR 82.9 75 77% 90 29.98 1015.0
30 18:53 E 10 10.00 Fair CLR 84.9 73.9 96.1 84.9 70% 92 29.97 1014.8
30 17:53 E 10 10.00 Fair CLR 84.9 73.9 70% 92 29.98 1015.1
30 16:53 SE 10 10.00 Mostly Cloudy BKN080 86 72 63% 92 29.98 1014.8
30 15:53 SE 17 G 24 10.00 Mostly Cloudy SCT045 BKN060 BKN085 86 73 65% 93 29.98 1015.1
30 14:53 NE 8 10.00 Partly Cloudy FEW048 SCT070 SCT085 93 71.1 49% 100 29.99 1015.2
30 13:53 NE 10 10.00 Mostly Cloudy SCT050 BKN075 BKN110 91.9 71.1 51% 99 30.01 1015.9
30 12:53 NE 6 10.00 Partly Cloudy FEW048 SCT075 SCT090 90 71.1 91.9 75 54% 96 30.03 1016.8
30 11:53 Calm 10.00 Mostly Cloudy SCT039 BKN075 91 73 56% 100 30.06 1017.6
30 10:53 Vrbl 6 10.00 Fair CLR 89.1 73.9 61% 98 30.06 1017.8
30 09:53 E 3 10.00 A Few Clouds FEW020 86 75 70% 95 30.05 1017.5
30 08:53 E 6 10.00 Fair CLR 82 75.9 82% 89 30.05 1017.5
30 07:53 NE 5 10.00 Fair CLR 75.9 73.9 94% 75 30.05 1017.6
30 06:53 NE 5 10.00 Fair CLR 75 73 77 73.9 94% 73 30.04 1016.9
30 05:53 NE 5 10.00 Fair CLR 75 73 94% 73 30.02 1016.4
30 04:53 N 3 10.00 Fair CLR 75 73 94% 73 30.02 1016.2
30 03:53 Calm 10.00 Fair CLR 75 73 94% 73 30.01 1015.9
30 02:53 NE 3 10.00 Fair CLR 73.9 72 94% 30 1015.8
30 01:53 Calm 10.00 Fair CLR 75.9 72 88% 76 30.02 1016.3
30 00:53 E 6 10.00 Fair CLR 75.9 72 91 73.9 88% 76 30.04 1016.9
29 23:53 E 5 10.00 Fair CLR 75 69.1 82% 75 30.03 1016.8
29 22:53 E 5 10.00 Fair CLR 75 69.1 82% 75 30.03 1016.6
29 21:53 Calm 10.00 Fair CLR 78.1 69.1 74% 80 30.01 1016.1
29 20:53 NE 3 10.00 Fair CLR 80.1 70 71% 83 29.99 1015.3
29 19:53 Calm 10.00 Fair CLR 82.9 68 61% 86 29.97 1014.9
29 18:53 NE 6 10.00 Fair CLR 91 63 97 91 39% 92 29.96 1014.4
29 17:53 E 7 10.00 Fair CLR 93.9 63 36% 95 29.97 1014.6
29 16:53 NE 7 10.00 Fair CLR 95 64 36% 97 29.97 1014.8
Date Time (cdt) Wind (mph) Vis. (mi.) Weather Sky Cond. Air Dwpt Max. Min. Relative Humidity Wind Chill (°F) Heat Index (°F) altimeter (in) sea level (mb) 1 hr 3 hr 6 hr
6 hour
Temperature (ºF) Pressure Precipitation (in)